TimeEST,TemperatureF,Dew PointF,Humidity,Sea Level PressureIn,VisibilityMPH,Wind Direction,Wind SpeedMPH,Gust SpeedMPH,PrecipitationIn,Events,Conditions,WindDirDegrees,DateUTC
12:11 AM,32.0,24.8,75,30.28,10.0,Calm,Calm,-,N/A,,Overcast,0,2012-11-27 05:11:00
12:32 AM,32.0,23.0,69,30.27,10.0,Calm,Calm,-,N/A,,Overcast,0,2012-11-27 05:32:00
12:52 AM,30.2,24.8,80,30.27,10.0,Calm,Calm,-,N/A,,Overcast,0,2012-11-27 05:52:00
1:12 AM,30.2,24.8,80,30.27,10.0,Calm,Calm,-,N/A,,Overcast,0,2012-11-27 06:12:00
1:32 AM,30.2,24.8,80,30.27,10.0,Calm,Calm,-,N/A,,Overcast,0,2012-11-27 06:32:00
1:52 AM,30.2,24.8,80,30.27,10.0,Calm,Calm,-,N/A,,Overcast,0,2012-11-27 06:52:00
2:12 AM,30.2,24.8,80,30.28,10.0,Calm,Calm,-,N/A,,Overcast,0,2012-11-27 07:12:00
2:32 AM,30.2,24.8,80,30.28,10.0,Calm,Calm,-,N/A,,Overcast,0,2012-11-27 07:32:00
2:52 AM,30.2,23.0,75,30.28,10.0,NW,3.5,-,N/A,,Overcast,310,2012-11-27 07:52:00
3:12 AM,30.2,23.0,75,30.28,10.0,NW,3.5,-,N/A,,Scattered Clouds,310,2012-11-27 08:12:00
3:32 AM,28.4,21.2,74,30.28,10.0,NW,5.8,-,N/A,,Clear,310,2012-11-27 08:32:00
3:53 AM,28.4,21.2,74,30.27,10.0,NW,4.6,-,N/A,,Clear,320,2012-11-27 08:53:00
4:13 AM,26.6,19.4,74,30.27,10.0,NW,3.5,-,N/A,,Clear,320,2012-11-27 09:13:00
4:33 AM,26.6,19.4,74,30.27,10.0,NW,4.6,-,N/A,,Clear,320,2012-11-27 09:33:00
4:53 AM,26.6,19.4,74,30.28,10.0,NW,4.6,-,N/A,,Clear,320,2012-11-27 09:53:00
5:13 AM,26.6,19.4,74,30.28,10.0,NW,3.5,-,N/A,,Clear,320,2012-11-27 10:13:00
5:33 AM,24.8,17.6,74,30.28,10.0,NNW,3.5,-,N/A,,Clear,330,2012-11-27 10:33:00
5:53 AM,26.6,19.4,74,30.29,10.0,NW,3.5,-,N/A,,Clear,320,2012-11-27 10:53:00
6:13 AM,24.8,17.6,74,30.29,10.0,Calm,Calm,-,N/A,,Clear,0,2012-11-27 11:13:00
7:34 AM,19.4,17.6,93,30.31,10.0,Calm,Calm,-,N/A,,Clear,0,2012-11-27 12:34:00
7:54 AM,21.2,17.6,86,30.32,10.0,Calm,Calm,-,N/A,,Clear,0,2012-11-27 12:54:00
8:14 AM,21.2,17.6,86,30.33,10.0,Calm,Calm,-,N/A,,Clear,0,2012-11-27 13:14:00
8:34 AM,23.0,19.4,86,30.33,10.0,Calm,Calm,-,N/A,,Clear,0,2012-11-27 13:34:00
8:54 AM,26.6,19.4,74,30.33,10.0,Calm,Calm,-,N/A,,Clear,0,2012-11-27 13:54:00
9:14 AM,28.4,21.2,74,30.34,10.0,Calm,Calm,-,N/A,,Clear,0,2012-11-27 14:14:00
9:34 AM,28.4,19.4,69,30.35,10.0,Calm,Calm,-,N/A,,Clear,0,2012-11-27 14:34:00
9:54 AM,30.2,19.4,64,30.35,10.0,NW,5.8,-,N/A,,Clear,320,2012-11-27 14:54:00
10:15 AM,30.2,17.6,60,30.35,10.0,NNW,4.6,-,N/A,,Clear,330,2012-11-27 15:15:00
10:35 AM,30.2,17.6,60,30.35,10.0,WNW,3.5,-,N/A,,Clear,300,2012-11-27 15:35:00
10:55 AM,32.0,17.6,55,30.35,10.0,NNW,4.6,-,N/A,,Clear,330,2012-11-27 15:55:00
11:15 AM,32.0,17.6,55,30.35,10.0,NW,4.6,-,N/A,,Clear,320,2012-11-27 16:15:00
11:35 AM,32.0,17.6,55,30.35,10.0,NNW,4.6,-,N/A,,Clear,330,2012-11-27 16:35:00
11:55 AM,33.8,17.6,52,30.34,10.0,Calm,Calm,-,N/A,,Clear,0,2012-11-27 16:55:00
12:15 PM,33.8,17.6,52,30.33,10.0,Calm,Calm,-,N/A,,Clear,0,2012-11-27 17:15:00
12:35 PM,33.8,17.6,52,30.33,10.0,West,4.6,-,N/A,,Clear,280,2012-11-27 17:35:00
12:55 PM,33.8,17.6,52,30.32,10.0,Calm,Calm,-,N/A,,Clear,0,2012-11-27 17:55:00
1:15 PM,35.6,17.6,48,30.31,10.0,West,3.5,-,N/A,,Clear,260,2012-11-27 18:15:00
1:35 PM,35.6,19.4,52,30.31,10.0,WNW,4.6,-,N/A,,Clear,290,2012-11-27 18:35:00
1:56 PM,35.6,17.6,48,30.30,10.0,Calm,Calm,-,N/A,,Clear,0,2012-11-27 18:56:00
2:11 PM,35.6,17.6,48,30.30,10.0,WNW,4.6,-,N/A,,Clear,290,2012-11-27 19:11:00
2:31 PM,35.6,17.6,48,30.29,10.0,WSW,4.6,-,N/A,,Clear,240,2012-11-27 19:31:00
2:51 PM,35.6,17.6,48,30.28,10.0,WNW,5.8,-,N/A,,Clear,290,2012-11-27 19:51:00
3:11 PM,35.6,17.6,48,30.28,10.0,West,5.8,-,N/A,,Clear,260,2012-11-27 20:11:00
3:31 PM,35.6,17.6,48,30.27,10.0,Calm,Calm,-,N/A,,Clear,0,2012-11-27 20:31:00
3:51 PM,35.6,17.6,48,30.26,10.0,WNW,5.8,-,N/A,,Clear,300,2012-11-27 20:51:00
4:11 PM,35.6,17.6,48,30.26,10.0,West,3.5,-,N/A,,Clear,270,2012-11-27 21:11:00
4:51 PM,33.8,17.6,52,30.26,10.0,Calm,Calm,-,N/A,,Clear,0,2012-11-27 21:51:00
5:12 PM,32.0,17.6,55,30.26,10.0,Calm,Calm,-,N/A,,Clear,0,2012-11-27 22:12:00
6:12 PM,28.4,17.6,64,30.26,10.0,Calm,Calm,-,N/A,,Clear,0,2012-11-27 23:12:00
6:52 PM,28.4,19.4,69,30.27,10.0,SSW,3.5,-,N/A,,Clear,200,2012-11-27 23:52:00
7:12 PM,28.4,19.4,69,30.27,10.0,Calm,Calm,-,N/A,,Clear,0,2012-11-28 00:12:00
7:32 PM,26.6,19.4,74,30.28,10.0,Calm,Calm,-,N/A,,Clear,0,2012-11-28 00:32:00
7:53 PM,26.6,19.4,74,30.27,10.0,South,3.5,-,N/A,,Clear,180,2012-11-28 00:53:00
8:13 PM,28.4,19.4,69,30.27,10.0,SSW,3.5,-,N/A,,Clear,200,2012-11-28 01:13:00
8:33 PM,24.8,17.6,74,30.27,10.0,Calm,Calm,-,N/A,,Clear,0,2012-11-28 01:33:00
8:53 PM,24.8,19.4,80,30.26,10.0,Calm,Calm,-,N/A,,Clear,0,2012-11-28 01:53:00
9:13 PM,24.8,19.4,80,30.26,10.0,South,3.5,-,N/A,,Clear,180,2012-11-28 02:13:00
9:33 PM,26.6,19.4,74,30.26,10.0,South,3.5,-,N/A,,Clear,190,2012-11-28 02:33:00
9:53 PM,24.8,17.6,74,30.26,10.0,Calm,Calm,-,N/A,,Clear,0,2012-11-28 02:53:00
10:13 PM,26.6,19.4,74,30.25,10.0,SSW,4.6,-,N/A,,Clear,200,2012-11-28 03:13:00
11:14 PM,26.6,19.4,74,30.25,10.0,SSW,3.5,-,N/A,,Clear,210,2012-11-28 04:14:00
11:34 PM,26.6,19.4,74,30.25,10.0,SSW,3.5,-,N/A,,Clear,210,2012-11-28 04:34:00